TimeEDT,TemperatureF,Dew PointF,Humidity,Sea Level PressureIn,VisibilityMPH,Wind Direction,Wind SpeedMPH,Gust SpeedMPH,PrecipitationIn,Events,Conditions,WindDirDegrees,DateUTC
12:15 AM,5.0,0.5,82,30.34,10.0,NW,3.5,-,N/A,,Clear,320,2014-03-16 04:15:00
12:35 AM,5.5,-0.4,77,30.35,10.0,North,3.5,-,N/A,,Clear,360,2014-03-16 04:35:00
12:54 AM,5.0,-3.6,68,30.36,10.0,North,6.9,-,N/A,,Clear,360,2014-03-16 04:54:00
1:15 AM,3.7,-5.6,65,30.37,10.0,North,4.6,-,N/A,,Clear,360,2014-03-16 05:15:00
1:34 AM,2.8,-6.5,65,30.38,10.0,North,6.9,-,N/A,,Clear,360,2014-03-16 05:34:00
1:55 AM,2.3,-7.1,65,30.39,10.0,North,5.8,-,N/A,,Clear,360,2014-03-16 05:55:00
2:15 AM,3.0,-7.6,61,30.40,10.0,North,6.9,-,N/A,,Clear,360,2014-03-16 06:15:00
2:34 AM,2.3,-7.8,63,30.40,10.0,North,5.8,-,N/A,,Clear,360,2014-03-16 06:34:00
2:55 AM,1.9,-8.5,62,30.41,10.0,North,6.9,-,N/A,,Clear,360,2014-03-16 06:55:00
3:15 AM,1.9,-9.4,59,30.42,10.0,North,9.2,-,N/A,,Clear,360,2014-03-16 07:15:00
3:35 AM,0.9,-10.3,59,30.42,10.0,North,5.8,-,N/A,,Clear,360,2014-03-16 07:35:00
3:55 AM,-0.0,-10.3,62,30.43,10.0,North,4.6,-,N/A,,Clear,350,2014-03-16 07:55:00
4:15 AM,-1.3,-10.8,64,30.43,10.0,Calm,Calm,-,N/A,,Clear,0,2014-03-16 08:15:00
4:35 AM,-1.8,-11.2,64,30.44,10.0,North,6.9,-,N/A,,Clear,360,2014-03-16 08:35:00
4:55 AM,-1.5,-11.7,62,30.45,10.0,North,4.6,-,N/A,,Clear,10,2014-03-16 08:55:00
5:15 AM,-2.0,-12.1,62,30.45,10.0,NNE,4.6,-,N/A,,Clear,20,2014-03-16 09:15:00
5:35 AM,-2.2,-12.1,63,30.46,10.0,North,3.5,-,N/A,,Clear,360,2014-03-16 09:35:00
5:55 AM,-3.3,-12.5,65,30.47,10.0,Calm,Calm,-,N/A,,Clear,0,2014-03-16 09:55:00
6:14 AM,-4.2,-12.5,68,30.47,10.0,Calm,Calm,-,N/A,,Clear,0,2014-03-16 10:14:00
6:35 AM,-4.4,-12.3,69,30.47,10.0,Calm,Calm,-,N/A,,Clear,0,2014-03-16 10:35:00
6:55 AM,-4.7,-13.4,66,30.48,10.0,North,4.6,-,N/A,,Clear,360,2014-03-16 10:55:00
7:14 AM,-5.1,-13.9,66,30.48,10.0,North,3.5,-,N/A,,Clear,360,2014-03-16 11:14:00
7:35 AM,-5.8,-14.3,67,30.47,10.0,North,4.6,-,N/A,,Clear,360,2014-03-16 11:35:00
7:55 AM,-5.3,-14.1,66,30.47,10.0,North,4.6,-,N/A,,Clear,360,2014-03-16 11:55:00
8:15 AM,-5.1,-14.1,65,30.47,10.0,North,6.9,-,N/A,,Clear,360,2014-03-16 12:15:00
8:35 AM,-4.0,-13.9,63,30.47,10.0,North,5.8,-,N/A,,Clear,360,2014-03-16 12:35:00
8:55 AM,-3.5,-13.5,62,30.47,10.0,North,4.6,-,N/A,,Clear,350,2014-03-16 12:55:00
9:15 AM,-2.7,-13.0,62,30.47,10.0,North,4.6,-,N/A,,Clear,360,2014-03-16 13:15:00
9:35 AM,-2.2,-13.0,60,30.48,10.0,North,3.5,-,N/A,,Clear,360,2014-03-16 13:35:00
9:55 AM,-1.3,-13.0,58,30.47,10.0,North,3.5,-,N/A,,Clear,360,2014-03-16 13:55:00
10:15 AM,-0.4,-12.8,56,30.48,10.0,NNW,3.5,-,N/A,,Clear,340,2014-03-16 14:15:00
10:35 AM,0.1,-13.7,52,30.48,10.0,North,4.6,-,N/A,,Clear,360,2014-03-16 14:35:00
10:54 AM,0.5,-14.6,49,30.47,10.0,North,3.5,-,N/A,,Clear,360,2014-03-16 14:54:00
11:15 AM,1.9,-13.2,49,30.47,10.0,Calm,Calm,-,N/A,,Clear,0,2014-03-16 15:15:00
11:35 AM,2.8,-12.1,50,30.47,10.0,Calm,Calm,-,N/A,,Clear,0,2014-03-16 15:35:00
11:54 AM,4.1,-11.9,48,30.46,10.0,NNE,3.5,-,N/A,,Clear,20,2014-03-16 15:54:00
12:15 PM,6.1,-11.7,44,30.46,10.0,Calm,Calm,-,N/A,,Clear,0,2014-03-16 16:15:00
12:34 PM,7.3,-10.7,44,30.46,10.0,West,4.6,-,N/A,,Clear,270,2014-03-16 16:34:00
12:55 PM,8.2,-10.3,43,30.45,10.0,West,3.5,-,N/A,,Clear,260,2014-03-16 16:55:00
1:15 PM,8.1,-10.5,43,30.44,10.0,WNW,3.5,-,N/A,,Clear,290,2014-03-16 17:15:00
1:34 PM,9.5,-11.9,37,30.43,10.0,NW,4.6,-,N/A,,Clear,310,2014-03-16 17:34:00
1:55 PM,10.8,-10.5,38,30.43,10.0,West,3.5,-,N/A,,Clear,270,2014-03-16 17:55:00
2:14 PM,11.1,-11.7,35,30.42,10.0,West,3.5,-,N/A,,Clear,270,2014-03-16 18:14:00
2:35 PM,12.2,-10.7,35,30.40,10.0,West,5.8,-,N/A,,Clear,280,2014-03-16 18:35:00
2:55 PM,12.9,-9.8,36,30.39,10.0,West,3.5,-,N/A,,Clear,270,2014-03-16 18:55:00
3:14 PM,13.1,-8.1,38,30.38,10.0,West,5.8,-,N/A,,Clear,270,2014-03-16 19:14:00
3:35 PM,13.3,-9.8,35,30.37,10.0,West,3.5,-,N/A,,Clear,280,2014-03-16 19:35:00
3:55 PM,13.8,-8.3,37,30.36,10.0,SW,3.5,-,N/A,,Clear,230,2014-03-16 19:55:00
4:15 PM,13.8,-8.3,37,30.36,10.0,WNW,4.6,-,N/A,,Clear,300,2014-03-16 20:15:00
4:35 PM,14.0,-10.3,33,30.35,10.0,NW,5.8,-,N/A,,Clear,310,2014-03-16 20:35:00
4:55 PM,14.0,-9.6,34,30.34,10.0,WNW,4.6,-,N/A,,Clear,300,2014-03-16 20:55:00
5:15 PM,14.0,-8.7,36,30.33,10.0,WNW,4.6,-,N/A,,Clear,290,2014-03-16 21:15:00
5:35 PM,14.4,-7.2,38,30.32,10.0,West,3.5,-,N/A,,Clear,280,2014-03-16 21:35:00
5:55 PM,13.8,-5.6,42,30.32,10.0,West,4.6,-,N/A,,Clear,280,2014-03-16 21:55:00
6:15 PM,13.5,-6.7,40,30.31,10.0,West,3.5,-,N/A,,Clear,270,2014-03-16 22:15:00
6:35 PM,13.1,-7.8,39,30.31,10.0,WSW,3.5,-,N/A,,Clear,250,2014-03-16 22:35:00
6:54 PM,12.7,-8.7,38,30.30,10.0,West,4.6,-,N/A,,Clear,260,2014-03-16 22:54:00
7:15 PM,11.8,-8.5,40,30.30,10.0,Calm,Calm,-,N/A,,Clear,0,2014-03-16 23:15:00
7:35 PM,10.8,-8.3,42,30.30,10.0,Calm,Calm,-,N/A,,Clear,0,2014-03-16 23:35:00
7:54 PM,10.2,-7.6,45,30.28,10.0,Calm,Calm,-,N/A,,Clear,0,2014-03-16 23:54:00
8:15 PM,8.4,-6.7,50,30.28,10.0,NW,3.5,-,N/A,,Clear,320,2014-03-17 00:15:00
8:35 PM,7.7,-6.2,53,30.28,10.0,Calm,Calm,-,N/A,,Clear,0,2014-03-17 00:35:00
8:54 PM,7.2,-6.7,53,30.28,10.0,Calm,Calm,-,N/A,,Clear,0,2014-03-17 00:54:00
9:15 PM,6.4,-6.7,55,30.27,10.0,Calm,Calm,-,N/A,,Clear,0,2014-03-17 01:15:00
9:35 PM,6.3,-6.9,55,30.26,10.0,Calm,Calm,-,N/A,,Clear,0,2014-03-17 01:35:00
9:55 PM,4.5,-6.0,62,30.26,10.0,Calm,Calm,-,N/A,,Clear,0,2014-03-17 01:55:00
10:15 PM,1.8,-6.0,70,30.26,10.0,Calm,Calm,-,N/A,,Clear,0,2014-03-17 02:15:00
10:35 PM,1.9,-7.4,65,30.25,10.0,Calm,Calm,-,N/A,,Clear,0,2014-03-17 02:35:00
10:55 PM,1.9,-7.6,64,30.24,10.0,Calm,Calm,-,N/A,,Clear,0,2014-03-17 02:55:00
11:15 PM,-0.4,-8.0,70,30.24,10.0,Calm,Calm,-,N/A,,Clear,0,2014-03-17 03:15:00
11:35 PM,-1.7,-7.6,76,30.23,10.0,Calm,Calm,-,N/A,,Clear,0,2014-03-17 03:35:00
11:55 PM,-2.7,-8.1,78,30.23,10.0,Calm,Calm,-,N/A,,Clear,0,2014-03-17 03:55:00